Theta_e
316 316 319 321 322 322 327 330 331 332 329 320 315 319 316 320 324 318 321 320 320 320 318 321 325 325 325 332 332 333 332 334 335 327 331 340 339 340 342 339 335 338 339 338 337 337 336 335 335 336 337 337 338 337 334 330 327 328 334 337 335 334 331 329 329 329 328 329 329 327 327 328 331 333 333 333 332 332 332 334 335 335 334 331 325 325 328 330 330 330 330 328 326 327 326 327 330
317 317 323 325 323 322 329 337 332 328 328 317 314 319 316 323 326 320 325 322 322 320 319 324 328 329 327 329 331 333 333 334 334 332 338 339 340 341 341 339 335 338 339 338 338 337 337 336 335 336 336 337 337 337 335 332 330 331 335 336 335 334 330 328 328 329 329 325 324 327 328 330 332 334 334 333 333 332 332 334 335 335 334 331 325 324 328 330 330 330 329 326 326 325 325 326 329
317 319 324 325 325 326 333 338 330 325 323 316 313 316 319 326 325 322 324 321 322 320 320 323 325 324 326 334 333 331 331 334 337 337 340 341 341 341 342 338 335 337 338 339 338 338 338 337 336 336 336 337 337 337 336 334 333 334 336 336 335 333 328 327 328 329 328 322 320 325 329 331 333 334 333 331 331 333 333 334 334 335 333 328 324 325 328 330 330 329 329 327 327 326 326 327 328
319 322 323 324 332 335 338 334 333 328 318 316 314 314 324 327 324 323 321 321 321 320 321 323 321 318 330 340 332 335 335 333 338 339 340 341 341 342 341 338 336 337 338 339 338 339 338 337 337 336 337 337 337 337 336 335 335 335 336 336 335 332 328 327 327 328 326 321 318 322 328 332 333 334 331 329 330 332 333 334 334 334 331 325 324 326 328 329 329 329 329 328 329 329 329 329 328
321 323 322 325 333 336 334 327 333 331 316 320 317 316 325 323 324 323 320 321 320 321 322 323 320 317 329 334 328 337 337 335 338 338 340 341 341 341 340 339 337 337 337 338 338 338 338 337 337 336 337 337 337 336 336 336 336 336 336 336 335 332 328 327 328 329 327 321 317 318 326 331 333 333 332 330 330 331 333 334 334 334 331 326 323 326 328 329 329 329 328 328 330 330 330 330 328
321 323 324 324 324 327 330 320 320 323 319 325 322 320 325 321 323 322 319 320 319 320 321 321 321 323 332 329 327 334 334 337 340 337 340 340 341 341 340 339 337 337 337 337 337 338 337 337 337 337 337 337 337 337 337 336 336 336 335 336 335 333 329 328 329 329 327 322 315 315 322 328 331 332 331 332 332 333 332 334 333 333 332 325 322 327 328 328 329 329 327 328 329 330 329 329 329
321 324 327 326 324 326 331 321 316 320 318 322 326 323 323 321 321 321 319 319 318 318 319 320 322 327 330 326 326 331 333 335 336 338 340 341 342 341 341 339 336 336 335 335 336 337 337 337 337 337 337 337 337 337 337 337 336 336 336 336 335 334 330 328 329 329 327 320 314 314 318 322 327 330 330 330 332 334 333 333 332 332 329 323 322 327 328 328 329 327 326 327 327 328 329 328 328
322 323 329 332 332 331 330 322 319 323 318 317 322 321 321 321 319 321 320 321 319 317 318 318 323 325 323 328 331 331 334 334 336 339 340 341 342 341 341 339 337 337 337 335 334 336 337 337 337 336 336 336 336 336 337 337 335 336 336 335 335 334 330 329 329 329 327 320 314 312 314 317 322 327 328 329 330 332 333 332 331 329 326 321 321 326 327 328 328 326 326 327 327 327 328 328 327
321 321 328 330 332 334 326 317 316 319 318 318 319 319 321 319 318 321 320 319 318 318 318 317 321 322 323 336 336 330 334 335 336 339 340 340 341 341 341 340 338 339 340 337 334 335 337 337 336 336 336 336 336 336 337 337 335 335 336 335 335 334 331 330 330 330 328 321 314 312 313 314 318 323 324 327 329 330 330 330 329 327 323 322 322 325 327 327 327 325 324 325 326 326 327 328 326
325 322 326 331 334 329 318 315 317 317 317 318 318 320 320 316 319 321 320 318 317 319 317 317 322 323 328 338 334 329 334 336 336 338 340 340 341 341 340 340 339 339 341 339 335 333 336 336 336 335 335 335 335 336 336 336 335 335 335 335 335 334 331 330 330 330 328 322 316 313 314 314 315 319 321 324 327 328 328 328 327 324 323 324 323 324 326 327 326 324 324 324 324 325 325 326 325
330 329 334 334 330 324 317 318 317 316 316 316 316 318 317 316 319 318 319 318 317 320 317 317 324 328 330 332 331 329 333 336 337 338 338 339 341 341 340 341 340 340 341 340 336 333 334 335 335 334 334 334 334 335 335 335 335 335 335 335 335 334 332 330 330 330 329 324 318 315 315 317 317 317 318 320 323 325 327 326 326 324 324 325 323 324 325 326 325 323 323 323 323 324 324 325 325
329 332 344 332 323 324 324 320 316 317 316 316 316 316 315 316 317 316 319 319 318 320 318 317 321 327 328 326 327 330 334 336 336 338 338 339 340 340 341 341 341 340 341 341 338 334 333 334 335 334 334 333 333 334 335 335 335 335 335 335 334 334 332 331 330 330 330 326 320 317 317 319 318 316 317 318 320 322 324 324 324 325 325 325 324 324 324 325 325 323 323 322 322 323 323 324 324
331 334 340 323 322 327 322 319 318 319 316 318 319 316 316 315 317 317 319 320 319 318 317 316 318 326 327 323 326 329 334 335 335 337 336 339 339 339 340 341 341 340 341 341 338 335 333 333 334 335 334 333 332 333 334 335 335 335 335 335 335 334 332 331 331 331 330 327 322 319 319 320 319 318 317 318 319 319 320 320 321 322 323 324 324 323 323 325 324 322 323 322 321 322 322 323 323
328 337 340 322 323 325 321 319 317 319 318 322 319 315 316 315 317 315 318 319 318 318 315 314 319 327 326 324 329 330 333 334 335 336 335 339 338 338 339 340 341 340 341 341 339 336 334 332 333 334 333 332 332 333 334 334 335 334 335 334 334 334 333 332 331 331 330 329 325 321 319 319 319 319 318 317 316 315 314 314 316 320 322 323 323 323 323 324 322 321 322 321 321 321 321 322 322
324 343 345 326 323 320 321 321 320 322 319 320 319 316 317 315 316 314 316 319 318 316 313 313 317 320 322 329 334 330 331 333 334 335 334 337 337 337 338 339 341 341 341 341 339 336 334 333 332 333 332 332 331 333 334 334 334 334 334 334 334 334 333 332 331 331 331 330 327 324 322 321 320 320 319 316 313 310 308 308 311 317 322 323 322 322 322 322 321 321 321 320 320 320 321 321 321
333 346 336 323 320 316 319 321 321 322 319 320 317 317 318 314 316 315 314 318 317 315 316 315 313 316 319 327 328 325 329 332 333 333 332 335 337 337 338 340 341 341 341 340 339 337 335 333 332 333 332 332 331 332 333 334 334 332 333 334 334 334 333 332 331 331 331 330 328 327 325 323 322 321 319 317 312 307 306 305 308 316 321 321 320 320 320 320 321 321 320 320 320 320 320 320 320
338 343 332 322 319 316 317 319 321 321 320 321 316 316 319 315 315 314 312 316 317 317 320 317 317 325 327 326 322 321 329 332 334 333 333 335 337 339 340 341 341 341 341 340 340 337 336 334 334 333 332 332 331 330 332 333 333 331 332 334 334 333 333 332 331 331 331 330 329 328 326 325 324 322 320 317 312 307 304 303 305 311 313 313 313 316 318 320 321 320 319 320 319 319 320 320 320
333 335 333 323 322 320 316 319 321 321 319 319 317 317 319 316 316 314 313 316 316 317 319 320 327 330 329 328 324 324 332 333 335 334 334 335 337 340 340 341 341 341 341 340 340 338 336 335 335 335 333 333 332 330 330 332 333 332 332 334 334 333 333 332 332 332 331 331 329 328 327 326 325 324 322 319 314 308 303 301 301 302 304 307 310 314 317 319 320 320 319 319 319 319 319 319 319
330 335 330 327 332 321 313 318 318 318 318 318 317 316 318 316 316 315 315 316 315 317 317 322 337 335 329 330 328 330 333 333 334 333 334 335 335 338 339 340 340 340 341 341 340 339 337 336 336 336 335 334 334 332 331 330 331 332 332 333 334 333 333 332 332 332 331 331 329 328 328 326 325 324 323 319 315 309 303 301 300 300 303 307 310 314 316 318 319 319 319 318 318 318 319 319 318
328 335 327 328 333 320 314 317 317 318 317 317 317 315 316 315 315 314 315 316 315 319 318 319 332 339 334 330 329 330 331 332 333 333 333 333 334 336 338 339 340 340 341 340 340 339 338 336 336 337 336 335 335 334 332 331 331 332 332 333 334 334 333 333 333 332 332 331 329 328 328 327 325 324 322 319 315 309 303 301 300 300 303 306 309 311 313 315 317 318 318 318 318 318 318 318 318
321 330 329 325 322 318 316 316 318 318 314 317 317 315 316 314 314 313 315 316 315 318 319 319 323 338 335 329 328 329 330 331 331 332 332 332 334 334 336 338 339 340 339 340 340 340 339 337 336 336 337 336 335 335 334 332 332 333 332 332 333 334 333 333 333 333 332 331 329 328 328 328 326 325 323 320 316 310 304 300 299 300 302 305 308 310 311 314 315 316 317 317 318 318 318 318 318
317 318 322 322 317 316 317 317 319 316 314 317 317 316 315 314 314 315 316 317 319 318 316 318 319 332 335 330 328 328 328 330 329 330 331 331 333 333 335 336 338 339 339 340 340 340 339 337 337 336 337 336 336 336 335 333 332 333 332 331 332 333 333 333 333 332 331 330 329 328 328 327 326 325 324 321 316 310 305 300 299 299 302 306 309 311 311 312 313 314 316 316 317 317 318 318 318
319 314 316 319 317 317 317 317 319 318 317 317 316 316 315 316 316 316 316 316 322 320 317 317 313 323 331 329 327 328 328 328 328 329 329 330 331 332 334 334 336 337 338 339 339 340 339 338 338 337 337 336 336 336 336 335 333 333 332 331 331 332 333 333 333 331 330 330 330 329 328 327 326 325 324 322 317 310 305 300 299 300 303 308 310 311 311 311 312 313 314 315 315 316 317 318 318
321 317 315 316 316 317 317 316 319 321 320 316 315 315 315 318 317 315 315 317 323 319 315 312 307 317 327 328 327 327 327 328 329 329 329 330 330 331 332 333 334 335 337 338 339 340 339 339 338 337 337 336 336 337 337 336 334 333 332 331 330 331 332 332 332 331 329 330 330 329 328 328 326 325 324 324 319 311 304 300 299 301 305 308 309 311 311 311 311 312 312 313 315 316 317 318 318
320 317 316 317 317 317 317 317 319 320 318 316 315 315 316 318 316 315 318 320 323 317 315 314 311 320 327 329 329 326 325 326 328 329 329 329 329 329 330 331 331 333 335 337 338 339 339 339 338 338 337 336 337 337 338 337 336 334 333 332 330 330 331 331 332 331 329 329 330 329 329 328 327 325 324 324 322 312 303 300 300 303 306 309 309 310 310 310 310 311 312 313 314 316 317 318 318
317 318 317 318 317 316 315 316 318 318 317 315 315 317 316 317 314 316 321 320 320 317 320 321 320 328 329 328 329 325 324 325 325 328 328 328 328 328 329 329 330 330 332 335 337 338 339 339 339 339 338 337 337 338 339 337 337 335 334 333 330 329 330 331 331 330 329 329 330 329 329 328 328 327 325 324 323 315 304 301 302 304 308 310 310 310 310 310 310 311 312 313 315 316 317 317 318
317 318 318 318 317 316 316 316 316 317 317 316 317 318 316 315 314 318 322 318 316 319 323 321 323 332 326 324 326 322 322 323 324 326 326 327 327 328 329 329 329 329 329 332 336 337 337 338 338 338 339 338 338 339 338 337 337 336 335 335 332 331 330 330 331 331 329 329 329 329 329 329 328 327 326 324 324 317 306 304 305 307 310 311 312 312 311 310 309 310 311 313 315 316 317 317 317
317 319 318 317 317 316 316 316 316 316 316 316 317 317 316 315 316 320 320 315 315 319 324 322 325 330 322 321 323 319 319 321 323 324 324 325 326 327 328 329 329 329 329 329 331 335 336 336 337 337 338 338 338 338 338 337 337 336 336 336 335 333 331 330 331 331 330 329 329 329 329 329 328 328 327 326 324 319 309 306 308 310 312 313 313 313 311 309 309 310 311 313 315 316 316 316 316
317 320 319 316 320 320 316 316 316 316 316 317 316 315 317 317 318 320 317 316 317 317 321 322 323 324 320 319 321 319 317 317 320 322 323 324 324 326 327 327 328 329 330 329 329 332 333 334 334 335 336 338 338 338 337 337 336 335 335 336 336 335 333 332 331 331 331 330 329 329 330 329 329 328 328 327 325 321 313 309 310 312 313 314 313 312 310 309 308 309 311 312 314 315 316 315 315
317 318 321 320 322 323 317 315 316 315 316 317 314 314 321 322 319 318 315 316 317 316 318 318 319 320 318 317 317 319 316 314 316 319 322 323 323 325 325 325 327 329 330 330 331 331 331 333 333 333 334 336 338 338 337 337 336 335 336 337 336 336 335 333 332 332 331 331 331 330 330 330 330 329 328 328 326 322 315 311 313 314 314 314 313 312 310 308 308 308 310 311 313 314 315 314 314
318 314 323 326 319 322 321 316 317 315 315 317 313 314 322 324 320 318 315 315 317 318 319 317 317 317 316 316 315 316 315 312 315 317 319 320 320 322 323 323 326 328 329 331 331 331 332 332 333 333 332 333 335 337 337 336 336 336 337 337 337 336 336 335 334 333 332 332 332 331 331 330 330 329 328 328 326 323 318 313 313 315 315 315 314 311 309 308 307 308 309 310 311 312 313 312 312
325 315 323 326 316 324 328 317 317 317 315 316 315 317 321 321 321 320 316 316 317 319 322 320 318 317 316 317 315 315 314 310 311 315 317 318 319 319 320 321 323 326 328 330 330 330 331 332 333 333 332 331 332 335 337 336 336 336 336 336 337 337 337 337 335 334 333 332 332 332 331 331 331 330 328 329 328 325 322 318 316 316 316 316 315 311 309 308 307 307 308 309 310 310 311 310 310
331 320 322 325 316 321 324 316 318 319 317 315 315 318 321 319 320 321 318 316 316 319 323 323 321 319 318 317 316 315 315 313 311 310 314 317 318 319 319 319 320 323 325 329 330 330 331 332 332 332 332 331 330 332 334 336 336 336 336 336 336 336 336 337 336 335 333 332 333 333 332 332 331 330 329 329 328 326 324 322 318 317 316 317 317 312 309 308 307 307 307 308 309 309 308 308 307
324 319 320 323 320 319 320 320 318 317 317 317 315 316 320 320 319 321 319 316 316 319 323 324 323 320 319 317 316 315 316 317 314 310 311 315 317 319 319 319 320 321 323 327 330 330 331 331 331 331 331 331 330 330 331 333 334 334 335 335 336 336 335 335 335 335 334 333 333 333 333 333 332 331 329 328 328 328 326 324 321 318 317 317 317 312 308 307 306 306 306 306 307 308 307 306 305
321 319 320 320 318 317 320 321 317 316 317 316 317 317 319 320 317 318 317 313 314 320 320 321 320 319 318 316 315 315 314 316 314 311 312 313 315 317 318 319 320 321 322 325 328 330 331 331 331 331 331 331 330 330 331 332 333 333 333 334 335 335 334 333 333 334 335 334 333 333 333 333 333 332 330 328 327 327 326 324 322 320 319 318 315 311 307 306 305 305 305 305 305 306 305 304 302
326 327 330 327 319 317 320 320 316 316 317 318 319 317 318 318 316 317 316 312 312 316 317 315 315 315 315 315 314 314 315 316 312 310 313 313 313 315 317 319 320 321 321 323 326 329 330 330 330 330 330 330 330 330 331 332 332 332 332 333 333 333 333 332 332 333 335 335 334 333 333 333 333 332 331 330 327 326 325 324 322 320 319 318 314 310 308 307 306 305 304 304 303 301 301 301 299
325 326 329 328 321 318 319 319 316 314 316 320 320 318 318 316 315 316 313 312 312 314 315 314 314 313 313 314 314 314 315 314 310 310 312 313 314 315 316 319 320 321 322 323 326 327 329 330 330 330 330 329 329 330 331 332 332 331 331 332 332 332 332 332 332 332 334 334 334 334 333 333 333 332 331 330 327 325 325 324 322 318 317 317 316 314 312 309 307 305 304 302 302 299 296 296 296
324 324 324 322 319 318 316 316 318 315 315 321 321 318 318 316 316 316 314 313 314 314 314 313 313 312 313 313 314 314 314 313 312 312 311 312 314 314 316 319 320 321 322 323 325 326 328 329 329 330 329 329 328 328 329 330 331 331 330 330 331 331 332 332 332 332 332 332 332 332 332 333 333 333 330 329 327 325 324 323 322 320 318 317 315 313 310 307 305 304 303 300 298 298 296 294 294
329 324 320 319 320 320 317 317 320 317 316 323 325 321 318 317 316 316 314 315 314 314 314 314 314 313 313 313 313 314 314 315 315 315 312 311 313 314 314 318 319 321 322 323 324 326 327 328 329 329 329 329 328 328 327 328 329 330 329 329 329 329 330 331 331 331 331 331 331 331 330 331 332 332 332 330 326 324 324 324 322 320 319 318 313 309 305 303 303 302 303 300 296 295 294 293 293
330 326 321 321 322 321 318 319 320 318 316 320 324 322 318 317 320 320 317 315 314 313 313 313 313 314 314 314 314 315 315 316 316 317 314 310 312 313 314 317 319 320 321 322 324 325 327 327 328 328 328 328 328 327 327 327 328 328 328 327 327 327 327 328 328 329 329 330 330 331 330 330 330 331 332 330 326 324 325 325 324 321 319 318 316 312 306 302 303 302 300 300 297 294 292 291 292
324 334 334 326 321 319 319 321 321 318 318 319 319 320 323 328 331 332 328 322 320 318 318 318 316 314 314 315 316 317 317 316 316 318 319 313 311 312 313 315 318 319 320 321 323 324 325 327 327 328 328 327 327 327 327 327 327 327 326 326 325 325 325 325 326 326 327 329 330 330 331 331 331 331 331 330 327 326 326 325 325 323 320 319 317 315 310 306 305 303 300 298 298 297 293 291 291
319 330 334 329 326 324 324 326 324 320 319 319 316 317 330 338 331 328 328 325 324 324 324 324 320 315 315 316 316 317 317 317 317 318 319 315 311 312 313 315 316 319 320 320 321 322 323 325 326 326 327 327 327 326 326 326 325 325 325 324 323 323 322 323 323 324 325 327 328 329 330 331 331 331 331 330 328 327 327 325 325 324 321 320 318 315 311 308 305 303 301 299 298 298 295 292 291
317 320 326 331 335 331 328 324 319 320 319 317 316 316 324 327 319 319 320 316 318 318 318 319 317 316 319 321 318 318 317 316 319 321 322 318 313 312 313 314 316 318 319 320 320 321 322 323 324 325 325 326 326 325 325 325 324 324 323 323 323 322 321 321 322 322 323 324 326 328 329 330 330 330 329 328 327 325 324 325 325 324 322 320 318 315 312 311 308 305 302 300 297 297 296 293 291
318 319 325 330 331 329 333 328 319 323 322 320 324 323 321 322 319 318 317 315 318 318 318 320 316 314 318 324 324 322 320 319 321 327 331 323 313 312 314 315 316 317 318 319 320 321 321 322 322 323 324 324 325 325 324 324 323 323 323 322 322 322 321 321 321 321 321 321 323 324 326 328 329 329 328 326 326 324 322 323 324 323 322 321 317 315 314 313 310 305 299 298 297 295 295 295 293
320 320 325 329 329 332 339 337 329 326 319 320 328 321 319 328 331 327 319 317 323 325 325 324 318 315 316 322 324 322 321 320 322 330 334 322 312 313 315 316 316 317 317 318 319 320 320 321 322 322 322 323 323 323 323 323 322 322 321 321 320 320 320 320 319 319 319 319 319 321 322 323 325 326 326 325 324 324 322 322 323 323 323 321 319 315 313 313 310 305 300 298 297 296 296 296 295
321 320 325 328 330 333 336 334 328 324 317 319 328 320 315 324 332 329 319 318 325 325 322 319 316 317 319 321 322 327 332 328 326 330 324 313 312 315 315 316 316 316 317 318 318 319 320 320 321 321 321 321 321 321 321 321 321 320 320 319 319 319 318 318 317 316 317 317 317 317 317 318 320 322 323 323 321 322 322 321 321 323 323 320 319 316 313 312 310 307 303 299 297 296 296 296 296
320 327 330 329 332 334 337 335 326 318 318 324 328 321 314 319 329 328 318 320 325 321 320 323 325 327 330 333 333 338 343 335 330 332 320 308 310 314 313 315 315 315 316 316 317 317 318 319 319 319 319 319 320 319 319 319 319 319 318 318 318 317 317 316 316 315 315 315 314 314 314 314 315 316 317 318 318 319 321 321 320 320 320 319 319 318 316 314 310 307 303 299 298 297 296 296 296
324 333 333 324 328 331 333 335 326 317 321 327 328 322 314 316 326 326 321 322 322 319 321 326 331 334 336 343 344 340 338 331 328 335 329 317 315 313 312 314 314 315 316 315 316 316 316 317 317 318 318 318 319 318 318 318 318 318 318 317 317 317 316 315 315 314 314 313 313 313 312 312 312 312 312 314 316 317 319 321 320 319 318 318 319 319 317 314 310 306 303 300 299 299 297 296 295
325 326 326 319 322 324 323 328 326 322 320 319 323 323 316 318 323 321 323 323 322 322 322 322 327 330 332 340 344 340 337 334 332 332 334 335 326 312 310 313 313 314 315 315 316 315 315 316 316 316 317 317 317 317 317 317 317 317 317 316 316 316 315 315 314 314 313 313 312 312 311 311 310 310 311 313 315 317 319 319 319 319 319 319 319 319 316 313 308 305 302 300 300 299 297 296 295
320 319 321 321 322 321 321 324 321 321 321 317 318 320 319 322 321 319 320 318 320 323 322 322 325 330 338 342 341 339 336 335 333 330 336 341 324 309 309 313 313 313 315 314 315 315 315 315 315 315 316 316 316 316 316 316 316 316 316 316 316 315 315 314 314 313 313 313 312 312 311 310 310 309 310 311 314 316 318 319 319 319 318 319 319 318 314 311 308 305 303 301 300 299 297 296 296
320 320 318 320 326 325 325 326 320 320 323 319 316 319 325 326 317 316 320 321 322 324 323 322 324 330 335 333 334 338 336 332 329 331 338 331 313 307 311 312 312 314 314 314 314 314 314 314 315 315 315 315 315 315 315 315 315 315 315 315 315 315 314 314 313 313 312 312 312 311 310 309 309 309 309 310 312 315 316 318 318 318 319 319 318 316 312 310 307 305 303 302 301 300 297 296 296
320 320 316 317 324 323 320 321 321 322 322 320 319 323 330 325 315 316 322 325 325 324 325 324 324 329 328 327 333 340 337 332 330 333 339 325 308 307 311 310 312 313 313 314 314 314 314 314 314 314 314 315 314 314 315 314 315 315 314 315 314 314 314 313 313 313 312 312 312 311 310 310 309 308 309 310 312 314 315 316 316 317 318 317 316 314 311 310 307 305 304 302 301 300 299 297 297
319 319 318 318 320 320 318 316 316 317 317 319 319 321 323 318 315 318 319 322 324 323 323 322 323 326 325 327 331 335 337 336 333 334 338 325 308 307 310 311 312 313 312 314 314 313 314 313 314 314 314 314 314 314 314 314 314 314 314 314 314 313 313 313 313 312 312 312 311 311 310 309 309 309 309 310 311 313 314 314 315 316 316 315 314 313 311 310 308 306 305 304 302 301 300 299 298
320 322 321 317 316 321 324 321 321 319 317 320 319 317 318 315 317 320 316 316 319 321 321 319 321 322 323 327 325 327 336 340 333 331 329 318 307 307 310 311 312 313 313 314 314 314 314 313 314 314 314 314 314 314 314 314 314 313 314 313 313 313 313 312 313 312 312 311 311 311 310 309 309 309 309 309 310 312 313 313 314 315 315 314 313 313 311 309 308 306 305 304 303 302 300 299 299
320 324 321 320 322 324 322 319 322 321 319 324 323 316 314 314 316 318 315 316 319 319 319 320 322 321 323 328 324 320 328 335 332 332 333 322 309 307 309 312 313 313 313 313 313 313 313 313 314 313 314 314 314 314 314 314 313 313 313 313 312 313 312 312 312 311 311 311 310 310 310 309 309 309 310 310 311 312 312 312 313 314 315 314 313 312 311 309 307 306 305 304 303 302 300 300 299
318 318 316 320 325 325 323 319 319 320 319 323 321 315 316 319 318 315 314 318 320 319 320 321 322 321 320 323 325 324 328 334 335 338 344 332 311 306 310 312 313 314 313 313 312 312 313 313 313 313 314 313 313 314 313 313 313 313 313 312 312 312 312 312 311 311 310 310 310 310 310 310 309 309 310 311 311 312 312 313 312 312 314 314 312 311 310 309 307 306 305 304 303 302 301 300 299
320 319 318 321 320 320 323 320 318 321 323 323 318 314 321 328 321 315 315 317 317 318 318 318 318 317 316 318 326 331 333 340 338 333 338 327 308 306 312 312 313 314 313 313 312 312 312 312 312 313 313 313 313 313 313 313 313 312 312 312 312 311 311 311 311 310 310 309 310 310 310 310 309 309 311 311 312 312 312 313 313 312 312 312 312 311 309 308 307 306 305 304 303 302 301 300 299
318 318 318 320 319 319 320 318 317 319 320 323 319 313 319 326 319 316 318 318 316 317 315 315 316 316 318 321 325 328 333 342 336 331 342 332 309 307 311 311 313 314 313 314 313 312 312 312 312 312 312 313 313 313 313 313 312 312 312 312 312 311 311 310 310 310 310 309 309 309 309 309 309 310 311 311 312 312 313 313 312 312 311 310 310 310 310 308 307 306 305 304 303 302 301 300 299
Wind_Speed
7 5 3 1 1 1 2 4 1 2 4 3 0 1 1 3 2 4 2 1 2 1 2 2 3 4 4 5 8 7 3 2 4 4 3 5 20 27 18 18 23 22 22 22 21 19 18 18 18 18 17 16 15 14 15 15 15 14 13 14 14 13 13 13 14 15 15 15 16 17 19 20 20 20 19 18 17 15 15 17 17 17 16 19 20 22 23 24 24 24 23 25 26 27 27 27 27
6 3 2 1 2 2 1 3 3 3 5 3 1 2 1 2 3 5 4 2 3 2 1 5 8 8 7 8 8 5 3 3 2 3 1 13 25 24 18 20 24 23 23 22 21 20 19 19 18 18 17 16 15 15 14 15 15 13 13 14 13 13 13 13 13 15 15 15 16 18 19 20 20 18 17 16 16 15 15 16 16 17 16 18 20 21 23 24 24 23 22 24 25 26 27 27 27
5 2 3 1 2 4 1 3 2 1 5 3 2 2 1 3 4 5 5 4 5 4 4 5 7 6 5 6 3 3 1 4 2 2 4 18 20 20 22 22 24 23 23 23 22 21 20 19 18 18 17 17 15 15 15 15 14 13 14 14 13 12 12 12 13 14 15 15 16 17 19 19 19 17 16 14 15 16 16 16 17 17 17 19 20 21 23 23 23 22 22 23 23 24 25 25 24
5 2 3 2 2 4 3 3 2 4 4 3 1 4 1 5 6 5 5 3 2 2 3 3 4 2 5 5 2 3 2 1 2 3 5 15 17 23 26 23 23 22 22 23 23 22 20 19 19 18 17 17 16 15 15 15 14 14 15 14 13 12 12 12 13 14 14 14 15 17 18 19 18 16 15 14 14 15 16 17 18 18 18 20 21 22 23 23 23 22 22 22 22 22 21 22 23
5 3 3 4 3 1 3 3 2 5 4 4 3 4 4 6 7 5 3 3 3 1 3 4 2 1 4 4 2 2 3 2 3 4 8 15 22 27 25 23 24 22 22 22 23 22 21 21 20 19 17 17 16 15 15 15 15 15 15 14 13 12 12 12 13 14 14 13 14 16 17 18 18 16 15 14 13 13 15 16 17 18 19 20 22 23 23 22 22 21 22 24 22 22 21 21 22
4 3 3 4 2 1 2 2 3 2 4 5 4 4 6 5 6 6 2 2 2 0 3 4 3 2 3 2 1 3 4 3 5 8 12 21 26 26 23 23 23 22 22 21 22 22 22 21 20 20 18 17 16 16 16 15 16 15 15 14 13 13 13 13 13 13 13 13 14 15 16 17 18 18 16 15 15 14 15 15 16 18 18 19 22 23 22 21 20 21 24 25 23 22 21 21 21
3 3 3 4 2 1 3 3 4 2 2 5 6 6 7 6 6 7 4 3 1 3 3 3 5 6 2 1 2 1 2 4 7 11 18 26 27 25 23 22 23 22 21 20 21 21 22 21 20 19 18 18 17 17 16 16 16 15 15 14 13 13 13 13 13 13 13 13 14 15 15 16 18 18 17 15 16 15 15 16 16 17 17 18 21 22 22 21 20 22 24 25 24 22 21 21 22
2 1 1 3 1 3 4 2 2 2 1 3 4 6 9 8 6 6 4 3 2 1 3 2 4 6 1 1 2 3 0 6 10 17 24 28 27 25 24 22 23 23 21 20 20 20 21 20 20 19 18 18 17 17 17 17 16 16 15 14 13 13 14 13 12 12 12 12 14 15 15 15 16 17 16 15 15 15 14 14 15 15 16 18 21 22 22 21 20 23 24 23 24 23 21 21 22
2 1 1 3 1 3 3 2 1 1 1 3 3 4 7 7 6 6 4 1 2 2 2 4 3 5 1 4 0 5 1 9 14 22 27 27 27 27 25 23 23 23 20 20 20 21 21 21 20 18 18 17 17 17 17 17 16 16 16 15 13 13 13 13 12 12 12 12 14 15 15 15 15 15 15 16 16 15 14 14 15 15 16 19 21 22 22 20 20 22 22 22 22 22 22 21 22
2 2 1 2 2 4 2 0 0 1 2 3 3 5 7 7 5 5 5 3 2 3 1 1 4 5 4 3 1 4 2 14 19 24 26 26 27 27 26 22 21 22 21 20 21 21 21 21 19 18 18 17 17 17 17 17 16 16 16 15 14 13 13 12 11 12 12 12 13 14 15 15 14 14 14 16 16 16 16 16 17 16 18 20 21 22 22 20 20 22 21 20 20 21 22 22 23
2 4 2 4 4 2 2 3 1 1 1 1 2 5 7 6 6 4 4 4 1 3 1 2 4 4 4 1 2 2 7 16 22 27 27 26 27 26 26 22 20 20 21 21 21 21 21 21 20 19 18 17 17 17 17 16 17 17 16 16 14 13 13 12 11 11 12 12 13 14 14 14 13 13 14 14 15 16 16 17 18 18 19 20 20 22 21 19 19 20 20 20 21 21 22 22 23
2 3 4 4 2 3 4 4 3 1 0 2 3 5 5 6 7 4 5 5 2 3 2 1 5 5 4 1 3 1 9 17 23 28 27 26 26 23 23 23 21 20 20 20 21 22 21 21 20 19 18 17 17 17 17 17 17 16 16 16 15 14 13 12 12 12 12 12 12 14 14 14 13 12 13 13 14 15 16 17 18 19 20 20 20 21 21 19 18 19 19 20 21 21 22 22 22
3 1 5 2 2 3 4 4 3 2 1 4 5 3 5 6 6 8 7 6 5 4 3 5 6 5 4 2 1 1 9 17 23 27 26 26 25 20 20 23 22 21 20 20 21 22 22 22 21 20 18 17 17 17 17 17 17 16 16 16 15 15 14 13 13 12 12 12 12 13 14 13 13 13 12 13 13 14 15 16 18 19 19 19 19 20 20 18 18 19 19 20 20 21 22 22 22
3 3 5 2 1 4 5 3 2 3 2 6 3 3 5 3 5 8 8 6 5 5 2 4 7 6 2 1 1 3 10 19 23 25 26 25 24 19 18 22 23 23 21 20 20 22 22 22 21 20 19 18 18 18 17 17 17 16 16 15 15 15 14 14 13 13 12 12 12 13 13 13 13 13 12 12 12 13 15 16 17 18 18 18 18 19 18 18 19 19 19 20 20 21 21 22 22
3 2 5 3 2 2 4 2 3 5 4 5 3 3 4 1 5 6 7 8 6 5 2 2 5 3 3 5 4 8 16 22 23 24 24 23 23 17 15 21 24 24 22 21 21 22 23 22 22 21 20 20 19 19 18 18 17 16 16 15 15 15 15 14 13 13 12 12 11 12 12 12 12 12 12 11 12 13 15 16 16 17 17 17 18 17 18 20 20 19 20 20 20 21 21 21 21
3 3 5 2 1 2 4 2 4 4 4 5 2 4 5 2 4 5 5 6 3 2 2 1 1 1 6 8 6 14 24 23 23 24 22 21 19 15 15 22 26 25 23 22 22 24 24 23 23 22 21 21 20 20 19 19 17 17 16 16 16 16 15 14 13 13 12 12 12 11 11 12 12 11 11 11 11 12 14 15 16 17 17 17 17 17 20 21 20 19 19 19 20 20 21 21 21
3 4 4 1 2 3 3 4 4 4 4 4 3 4 6 1 1 1 2 5 5 1 4 1 3 3 3 4 4 19 28 24 24 23 21 20 17 17 19 24 26 25 24 24 24 25 25 24 24 23 22 22 21 21 20 20 18 17 17 18 18 17 16 15 14 14 13 13 12 12 11 11 12 12 11 11 12 12 13 14 15 16 17 17 17 18 21 21 20 19 19 19 19 19 20 21 21
4 3 3 1 3 3 4 6 6 4 5 6 5 5 8 4 1 0 2 5 3 3 4 3 4 6 3 1 9 25 30 26 26 24 21 20 19 20 22 25 26 26 26 25 24 25 26 26 25 24 23 23 22 22 22 21 20 18 18 19 19 18 17 16 15 16 15 14 14 13 12 12 12 12 12 12 12 12 13 13 15 16 17 18 18 20 22 21 20 19 18 18 19 19 20 21 22
3 3 3 3 5 3 4 6 5 3 5 8 5 4 6 6 5 2 2 1 2 4 2 4 4 5 6 7 18 27 28 28 26 25 24 22 23 22 21 24 25 26 27 27 27 26 27 27 26 26 25 24 23 23 23 22 22 20 19 20 20 19 18 17 17 17 16 16 15 14 13 12 12 12 12 12 12 12 13 14 15 17 18 20 20 21 22 21 20 19 18 18 19 19 20 22 22
2 4 3 5 6 3 3 4 3 4 5 9 5 4 3 3 5 2 4 4 2 4 4 1 1 2 3 7 16 23 25 25 25 25 24 24 25 24 24 26 26 28 30 29 28 27 28 28 28 27 26 25 25 24 24 23 23 22 21 22 22 21 20 19 18 18 18 17 16 14 14 13 12 13 12 12 13 13 14 15 17 18 19 20 20 21 21 21 20 19 19 18 18 19 21 22 21
2 4 4 6 3 2 3 2 2 3 4 9 6 5 2 3 4 2 6 6 3 6 7 7 9 9 9 7 12 19 21 21 23 24 23 24 24 25 26 28 29 29 30 29 29 29 29 29 29 28 27 26 26 26 25 25 25 24 23 23 23 23 22 21 20 20 19 18 17 15 14 14 13 13 13 13 13 14 15 16 18 18 19 20 19 19 20 20 20 19 19 18 19 19 21 22 21
3 1 4 5 3 2 3 3 3 1 5 6 7 6 4 2 2 4 9 7 5 7 8 11 10 12 15 13 14 16 17 19 20 22 23 24 25 26 27 27 26 25 27 30 31 31 30 30 29 29 28 27 27 27 26 26 26 26 25 25 25 24 24 23 22 21 21 20 18 17 16 15 14 15 15 14 14 15 16 17 18 18 19 19 18 18 19 19 19 20 19 19 19 19 21 22 22
3 2 2 2 3 3 1 2 3 3 8 6 6 4 3 4 1 4 8 8 7 7 8 10 9 13 18 17 16 14 14 17 20 24 27 27 28 29 30 30 28 28 29 32 32 32 31 30 30 29 29 28 28 27 27 27 27 27 27 26 26 26 26 25 24 23 23 22 20 18 17 16 15 17 17 16 15 15 16 18 19 19 19 19 18 18 18 19 19 19 19 19 20 20 21 23 24
5 2 2 1 1 3 1 1 2 4 8 4 4 3 4 6 3 2 4 9 8 7 4 4 8 14 17 14 14 15 16 19 23 29 31 32 34 35 34 33 33 31 31 33 33 34 33 32 31 30 30 29 29 28 29 29 29 28 28 27 27 27 27 26 25 25 25 24 22 20 18 16 16 18 18 17 16 16 17 19 20 20 20 20 18 17 18 19 19 19 20 20 21 21 23 25 26
4 3 3 0 1 1 1 1 3 4 4 1 4 4 3 6 3 1 6 10 9 6 3 3 9 13 13 13 13 14 14 19 23 25 28 30 31 30 29 31 31 30 32 34 34 35 35 34 33 32 31 30 29 30 30 30 30 29 29 28 28 28 28 27 27 27 27 26 23 22 20 18 17 18 19 18 17 18 19 20 21 21 21 20 19 17 18 19 19 20 20 21 22 23 25 26 26
2 5 4 2 1 2 1 2 2 2 1 2 4 2 3 4 2 2 9 10 6 3 2 3 8 10 10 11 13 14 12 17 21 23 27 28 25 24 27 29 30 32 35 35 35 37 36 35 35 34 33 32 31 31 30 30 31 31 30 29 29 29 29 28 28 28 29 28 26 24 22 20 18 17 18 19 19 19 21 22 22 22 21 20 19 18 17 18 20 20 21 22 24 25 26 26 27
3 6 4 4 1 3 2 1 2 1 1 1 4 2 3 3 2 3 9 5 4 6 4 3 7 9 11 10 11 14 14 19 24 23 22 22 22 26 28 29 32 35 35 35 36 37 36 36 36 35 35 34 32 32 31 31 31 32 31 30 30 29 29 29 29 29 29 30 28 26 23 22 21 19 18 19 19 21 23 24 23 22 21 20 18 18 17 18 20 21 22 23 25 27 27 27 27
5 8 5 6 5 4 3 1 2 2 1 2 4 1 3 3 1 7 7 2 5 8 7 6 7 8 9 10 9 11 14 20 23 20 20 23 28 31 32 34 36 36 36 37 38 37 37 37 36 36 36 35 34 34 33 32 32 32 30 30 30 29 29 30 29 30 30 31 30 28 26 25 24 22 20 20 20 22 24 25 25 23 22 20 18 17 18 19 21 22 23 24 26 28 28 28 27
5 7 5 5 8 4 3 1 2 1 1 1 3 2 4 2 6 10 5 2 4 7 8 7 8 7 7 9 7 8 13 17 17 19 25 30 33 34 35 38 39 37 37 38 37 37 38 38 37 37 36 37 36 35 35 34 33 32 31 31 31 29 29 31 31 30 31 32 32 30 28 28 27 26 23 22 21 24 25 26 25 23 22 20 18 17 19 21 22 24 25 26 27 28 29 28 27
4 4 5 2 6 4 6 2 1 1 0 2 3 1 6 6 11 10 5 2 4 6 8 7 7 7 6 7 6 7 11 14 17 25 31 33 33 34 36 38 37 37 36 35 36 37 37 37 38 37 37 38 37 37 36 36 34 33 34 34 33 31 30 32 32 31 32 32 33 33 31 30 30 29 27 23 23 25 26 27 26 25 23 21 19 19 21 23 24 26 27 28 28 28 29 29 28
3 2 3 3 2 3 7 2 3 4 1 4 6 2 6 8 11 9 7 4 7 6 8 7 7 7 6 6 7 7 10 15 22 28 33 34 34 33 35 36 34 35 35 34 36 37 37 37 38 38 38 39 39 38 37 37 36 35 34 34 35 34 32 33 32 31 32 32 34 35 34 33 32 32 30 26 25 26 28 28 27 26 24 22 21 21 22 24 26 27 29 30 29 29 29 29 29
3 2 2 3 2 4 8 2 6 6 1 4 6 2 6 8 10 8 6 1 7 7 7 7 7 7 7 7 7 7 9 15 22 26 30 32 33 33 34 35 34 35 36 36 36 36 37 37 37 38 38 38 39 40 38 37 36 35 34 33 34 34 33 34 33 32 32 33 35 36 36 35 33 33 32 29 27 28 29 29 29 28 26 24 23 23 25 26 27 29 30 30 31 31 31 30 29
3 3 2 2 2 2 4 2 3 4 1 2 2 2 4 5 7 8 5 4 3 5 7 7 7 8 8 7 7 8 8 10 15 22 28 30 32 34 34 34 34 35 36 36 36 36 37 37 38 38 38 38 38 39 39 38 36 35 34 33 33 33 33 34 34 34 34 35 36 37 37 36 35 35 34 33 31 30 31 31 31 30 28 26 24 26 28 28 29 30 30 31 32 33 32 31 30
3 2 1 3 3 2 2 3 3 2 2 2 1 3 6 7 7 9 7 3 1 5 8 8 8 8 8 7 7 7 8 9 10 19 28 31 33 34 34 34 33 34 35 36 36 36 37 37 38 38 37 37 37 37 38 38 38 36 34 34 34 34 34 33 33 34 36 36 36 37 38 38 37 36 36 37 35 33 32 33 33 32 31 29 27 28 30 29 30 31 32 32 31 32 33 32 31
5 3 2 2 2 3 3 3 3 2 2 3 2 3 10 13 11 11 10 3 3 8 9 8 9 9 9 8 8 8 9 10 12 20 27 29 32 34 34 34 33 33 34 34 35 35 35 36 37 37 37 37 36 36 36 37 37 36 35 34 35 36 35 33 33 34 36 37 37 38 40 39 38 38 38 39 38 37 36 36 35 34 33 32 31 31 31 32 31 31 33 32 31 31 32 32 32
8 6 5 4 3 3 5 4 4 3 4 3 6 6 9 11 11 11 12 5 5 9 9 8 9 9 9 8 8 9 9 11 15 21 23 24 29 33 33 34 33 32 32 33 34 34 34 35 36 37 37 36 36 36 36 36 36 35 35 34 36 37 36 35 34 35 36 38 36 35 38 39 39 40 39 39 40 40 39 38 38 38 37 35 35 35 35 35 34 34 34 34 34 31 30 32 32
7 6 5 4 4 2 5 3 4 1 3 5 7 7 9 10 12 12 11 7 5 9 10 10 11 10 10 9 10 10 11 12 13 16 19 21 26 29 30 31 30 29 30 31 32 34 35 35 36 37 37 36 36 37 38 38 37 36 36 36 37 37 37 36 36 37 37 37 36 34 35 35 37 39 41 42 42 42 41 40 41 40 39 37 37 37 37 37 36 36 35 35 36 35 33 32 33
5 6 5 2 3 2 3 2 4 2 2 5 3 4 11 10 11 12 10 9 10 11 11 13 14 12 9 9 11 11 10 9 9 11 15 20 23 25 27 28 28 29 30 32 33 34 35 35 36 37 37 37 37 38 39 39 39 38 36 37 37 36 36 37 37 38 36 35 35 36 36 36 36 39 42 43 43 44 44 42 42 42 41 39 38 38 38 38 38 38 38 36 35 36 36 35 37
5 4 5 2 3 2 3 3 4 3 1 4 5 6 11 10 10 13 11 12 12 10 10 13 13 11 9 10 11 10 9 9 8 8 12 17 22 23 24 26 29 30 30 32 33 33 34 35 36 36 37 37 38 38 38 39 39 37 34 33 33 34 34 36 36 36 35 34 35 36 37 37 38 39 41 42 44 45 45 44 43 43 43 41 40 39 38 38 39 39 41 40 36 34 34 38 41
4 4 4 2 3 1 2 4 4 3 1 2 4 6 10 8 7 11 11 10 10 8 9 12 10 10 12 10 8 9 10 11 9 8 9 13 16 19 22 26 28 28 28 30 32 33 35 36 37 37 37 37 37 37 37 37 37 35 33 30 29 30 31 33 33 33 34 34 35 37 37 38 40 41 42 44 45 46 45 45 44 44 44 43 42 41 40 40 41 41 41 41 41 36 33 38 40
0 3 5 3 3 3 3 3 3 3 4 3 4 5 8 5 5 8 7 5 7 6 6 10 10 10 11 8 7 9 10 10 9 9 8 9 13 18 22 24 25 26 28 31 33 35 36 37 37 37 37 37 37 37 36 36 35 34 32 28 25 25 26 27 30 32 34 35 37 38 38 38 39 40 41 43 44 45 46 46 45 45 45 44 43 43 44 43 43 44 43 42 44 43 37 38 38
3 3 6 7 6 6 2 2 4 4 5 3 4 3 6 5 5 8 7 6 8 6 6 10 9 7 7 7 9 10 10 9 8 8 8 8 12 15 17 20 23 26 30 32 33 34 35 35 35 35 35 36 36 36 36 36 35 34 33 30 27 26 26 27 32 34 34 36 37 37 37 36 36 38 40 42 45 47 48 48 47 47 46 46 46 45 45 45 45 46 47 45 44 45 41 39 38
1 4 5 7 7 7 5 3 3 1 3 3 4 3 5 7 6 9 8 8 11 11 11 13 12 7 6 7 8 8 8 8 7 7 7 7 10 11 14 20 24 28 31 31 31 31 32 32 33 34 34 35 35 36 36 36 36 35 34 34 33 31 30 31 33 33 33 34 36 36 36 35 34 35 36 40 44 46 47 49 48 48 47 47 47 46 46 46 47 47 47 47 44 42 42 41 42
3 4 6 8 8 7 6 5 3 1 3 4 4 4 3 7 7 7 5 6 10 12 14 15 14 10 5 6 8 8 8 7 6 7 6 7 10 13 17 22 26 28 28 28 28 29 30 30 31 32 33 34 35 35 36 36 36 36 35 34 34 34 34 34 32 31 31 32 33 34 35 36 36 35 33 35 39 43 45 46 47 47 46 47 47 47 47 47 47 46 45 46 44 42 43 44 45
4 4 7 7 7 7 5 6 3 2 3 5 4 2 2 6 8 6 3 3 8 11 13 14 13 9 6 7 9 8 8 7 6 7 6 7 12 17 19 21 23 25 24 25 27 27 28 29 29 29 31 32 33 34 35 36 36 36 36 35 35 36 35 33 30 28 29 29 32 34 35 37 39 40 37 34 34 39 43 44 45 46 46 47 48 47 46 46 46 47 47 47 46 46 46 43 43
3 5 7 6 6 6 5 5 3 3 2 5 5 5 3 5 7 5 2 2 7 10 10 10 9 8 7 8 8 8 7 6 5 6 6 9 13 16 17 17 18 21 22 22 24 25 26 27 27 28 30 31 32 33 34 35 36 36 36 36 36 35 33 31 28 27 28 29 31 33 35 38 40 42 43 40 36 36 40 43 44 46 48 49 49 47 44 45 47 49 51 51 49 47 46 43 41
6 6 7 7 6 5 4 3 4 2 3 7 7 7 4 4 6 5 4 4 6 6 7 8 7 7 7 6 7 7 5 3 3 3 3 6 9 11 13 14 15 17 19 20 21 23 24 25 26 27 28 29 30 32 33 34 35 35 36 36 36 35 33 31 30 30 30 31 32 33 34 35 37 39 41 42 40 38 39 42 44 46 47 47 47 46 45 45 48 50 51 50 48 45 44 44 42
6 5 5 4 4 4 4 4 4 1 6 6 5 2 3 4 6 5 6 8 7 5 7 8 7 7 6 6 6 5 3 3 1 1 2 2 4 7 10 12 13 14 17 19 21 22 23 24 26 26 27 28 30 31 32 33 34 35 36 35 36 35 34 34 34 35 34 34 34 34 32 32 33 35 36 38 41 41 41 42 44 45 45 46 46 44 44 46 47 49 49 50 50 48 45 44 42
5 5 6 4 2 3 2 3 0 3 6 4 3 1 2 6 7 7 9 10 8 7 8 7 7 6 5 5 5 4 3 2 0 1 2 3 4 7 10 12 14 15 18 20 21 21 22 23 24 26 27 28 29 30 31 32 34 35 35 35 36 35 35 36 36 36 36 35 35 33 32 32 32 34 36 38 41 43 43 42 44 45 46 46 44 43 45 46 47 47 47 48 48 47 46 45 44
4 5 6 5 3 1 3 3 1 4 5 3 2 1 3 5 4 9 11 8 6 6 7 8 7 6 4 4 4 4 4 3 1 2 3 4 6 8 11 14 15 17 18 19 20 21 22 23 24 26 27 28 29 30 31 32 34 34 35 35 35 36 36 36 36 36 36 35 35 33 33 32 33 34 36 38 41 42 43 43 43 44 46 44 43 44 45 46 47 47 47 47 46 45 45 45 45
4 4 6 6 5 5 4 4 3 4 3 3 3 1 4 3 2 7 9 7 6 6 6 6 6 6 5 6 5 4 5 4 3 4 5 6 8 10 12 13 15 17 17 18 19 20 22 23 24 26 27 28 29 30 31 32 34 34 34 35 35 36 36 36 37 36 35 35 34 34 33 33 33 34 34 36 39 41 42 43 43 44 45 44 44 44 45 45 45 46 46 46 47 46 45 43 44
2 2 4 4 6 5 2 3 6 3 2 3 2 3 5 4 5 8 6 8 8 6 7 6 6 6 4 6 6 5 5 5 4 5 7 8 10 12 13 14 16 16 16 18 20 21 22 23 24 26 27 28 28 30 31 32 33 34 35 36 36 36 36 36 36 36 35 34 34 33 33 33 33 33 33 35 37 40 41 43 43 44 44 44 44 44 44 44 45 46 46 46 46 47 46 45 44
2 2 3 5 4 7 4 2 0 3 2 4 2 5 6 3 7 9 5 8 8 7 8 7 7 7 5 7 7 5 5 6 6 7 7 8 10 13 15 17 17 17 18 19 21 22 22 23 24 25 26 27 28 29 30 31 32 34 35 36 36 36 36 37 37 36 35 34 34 33 33 33 33 33 32 34 37 39 41 42 42 43 43 43 43 44 44 45 45 46 47 47 48 48 47 47 47
5 4 6 2 2 3 4 2 2 3 3 5 1 6 6 2 5 6 2 6 9 8 8 8 9 8 7 9 7 4 6 6 6 7 8 7 9 13 17 18 19 20 20 20 20 21 21 22 23 24 25 26 28 28 29 31 32 34 35 36 36 36 36 37 37 36 35 34 34 33 33 32 33 33 31 33 37 39 40 42 42 43 43 43 43 44 44 44 44 45 47 47 47 46 45 46 47
5 4 4 4 2 1 2 2 2 1 3 5 3 5 5 5 6 3 1 6 8 9 10 8 10 9 8 10 7 4 5 6 6 7 7 7 10 14 17 19 20 20 20 20 19 20 21 22 23 24 25 25 25 27 29 30 32 34 35 36 36 36 36 36 36 36 35 35 35 34 33 33 33 33 31 31 35 39 40 41 42 42 43 43 43 44 44 44 44 44 45 46 46 45 45 46 46
3 1 2 3 3 4 3 3 3 4 4 3 3 3 4 6 7 6 8 9 8 9 9 9 11 11 9 7 6 4 5 6 6 6 7 7 10 14 16 18 18 17 18 19 19 21 22 22 23 25 26 26 25 26 29 31 32 33 34 35 35 36 36 36 36 36 36 36 35 34 34 34 33 34 34 32 34 37 39 39 40 41 42 43 43 43 43 44 43 44 45 46 46 46 46 46 46
3 3 4 3 1 2 2 1 2 4 4 3 3 5 6 5 4 9 11 10 10 11 11 10 11 11 9 7 6 6 5 6 5 6 7 6 9 12 13 15 15 16 17 19 20 22 22 22 24 24 26 27 26 25 27 31 32 33 34 35 36 35 35 35 35 36 37 37 36 35 34 34 34 36 36 35 35 37 38 39 40 41 42 43 44 44 44 43 43 44 44 45 45 45 46 46 44
8 7 8 8 5 4 3 4 2 2 3 5 4 6 9 5 4 7 8 9 10 10 10 10 9 9 8 7 6 6 6 6 5 5 5 4 6 8 8 9 12 15 18 19 20 22 22 23 24 24 26 28 27 24 25 29 31 33 34 35 35 35 35 35 35 36 37 37 36 35 34 34 35 37 36 36 38 38 39 39 40 42 43 43 43 44 45 44 44 44 44 44 43 44 45 45 42
Wind_Direction
344 347 340 301 309 125 54 69 69 335 72 87 137 113 148 209 164 121 122 12 48 326 298 13 31 81 105 117 137 134 111 154 169 149 209 186 152 157 158 162 164 155 152 152 154 154 150 147 142 140 137 134 132 130 130 128 127 125 116 112 109 108 103 97 91 84 84 87 89 88 88 92 93 93 92 93 97 97 93 93 92 88 85 81 81 86 90 92 92 92 90 90 90 91 94 95 91
349 0 26 40 12 57 227 74 92 346 55 83 279 140 153 340 77 145 181 159 164 199 110 84 69 70 84 108 125 104 48 335 187 155 123 142 148 160 164 166 164 156 154 153 155 155 153 151 148 145 140 138 135 134 131 128 129 128 121 115 112 111 108 102 95 89 88 89 92 92 91 93 94 93 92 97 102 101 98 97 94 91 89 85 83 88 92 92 92 91 88 89 90 93 95 94 91
356 43 45 51 32 57 69 42 93 74 75 119 263 262 98 80 133 190 212 183 179 156 112 97 77 77 79 71 59 77 63 323 158 109 117 143 149 166 172 169 163 158 154 153 156 155 154 154 153 150 145 142 138 137 135 132 131 130 126 120 116 113 111 107 99 93 90 91 94 95 96 95 95 94 95 106 106 101 103 101 95 92 90 88 86 90 95 94 94 91 86 86 87 90 93 94 93
4 26 18 49 49 39 59 49 132 117 114 166 184 272 222 145 166 205 227 223 232 135 132 97 59 53 92 92 74 80 128 276 171 116 139 159 161 167 170 168 163 160 155 155 156 154 155 157 156 153 150 145 142 141 139 137 136 134 131 124 121 119 117 112 103 96 92 94 96 98 100 100 98 95 97 107 109 101 100 99 96 93 89 89 90 92 96 97 96 91 86 86 85 85 90 95 99
3 9 12 65 71 37 81 78 103 105 163 179 147 251 230 171 166 188 241 269 280 172 147 106 74 319 75 105 125 114 165 149 181 167 143 162 160 159 163 164 164 161 159 157 155 156 155 156 155 154 152 148 146 145 144 142 140 139 135 129 125 124 123 116 107 99 96 97 101 104 104 106 104 98 97 100 104 107 103 101 99 94 90 89 92 96 97 98 96 92 89 89 85 84 91 96 101
5 47 43 53 69 157 95 91 105 122 204 166 145 227 218 191 175 170 189 235 270 193 121 98 122 127 64 1 69 136 185 134 170 180 152 156 157 156 159 162 166 163 162 159 157 157 156 157 156 155 155 152 151 148 147 146 144 141 138 133 128 127 126 119 111 104 102 103 107 108 109 113 112 106 104 103 101 106 107 103 101 97 94 93 95 98 99 99 97 95 94 93 90 86 90 95 99
15 57 32 47 24 45 98 132 147 178 209 165 157 175 192 209 192 151 140 159 28 3 60 99 133 111 73 303 82 57 247 184 167 169 157 155 158 159 159 162 166 165 164 163 162 160 157 159 159 158 158 156 155 151 150 149 147 144 141 137 132 132 129 123 115 111 110 111 112 112 113 118 121 114 109 114 111 105 104 103 104 101 100 99 100 102 102 102 100 100 98 97 97 92 91 94 99
26 74 36 89 42 28 95 120 179 182 103 156 160 167 180 193 188 146 142 155 128 12 56 137 134 100 6 40 107 323 3 175 166 158 155 154 161 163 162 164 166 165 166 167 167 163 160 161 162 162 161 159 157 154 153 152 151 147 144 141 137 136 131 127 121 118 116 116 116 115 117 120 125 122 114 119 117 108 106 107 107 105 103 100 104 106 104 104 103 103 101 99 102 99 95 95 99
51 54 31 85 78 34 61 36 9 191 144 135 139 173 180 184 180 136 135 162 154 155 113 182 137 110 161 51 109 296 55 161 160 155 154 156 163 165 166 168 167 166 166 170 171 167 164 164 165 166 164 162 158 157 157 155 154 151 147 146 144 140 136 132 128 125 121 120 119 117 119 120 124 125 119 118 118 116 116 113 108 107 106 101 106 108 105 106 105 104 102 102 104 104 103 101 103
47 24 101 78 72 55 42 82 298 152 174 173 176 178 174 183 168 130 133 153 157 129 173 179 84 106 137 93 211 292 156 158 158 161 159 157 163 166 169 173 172 170 169 171 173 171 169 168 169 169 168 165 162 161 161 159 157 154 152 151 150 145 141 136 134 130 125 123 121 119 118 118 120 121 119 119 120 120 116 114 110 109 108 104 109 110 107 110 109 106 104 104 106 108 110 109 108
40 347 92 79 66 99 181 184 226 173 156 183 219 195 181 169 132 111 116 130 178 118 172 22 87 122 96 110 251 277 168 160 162 166 162 159 163 167 171 175 178 176 173 173 174 175 173 172 172 172 171 169 168 165 164 164 161 159 157 156 156 151 146 141 139 135 130 126 124 122 120 118 117 117 119 120 121 119 116 115 111 110 109 106 110 111 110 114 112 111 109 107 109 112 115 115 112
89 326 66 86 121 177 192 159 182 179 94 152 181 226 185 140 120 137 136 138 183 128 202 205 142 138 76 317 275 198 168 165 167 166 165 164 164 168 173 177 179 182 180 176 177 176 175 176 175 174 174 174 173 170 169 167 165 164 162 161 160 155 150 147 145 141 137 132 130 126 124 122 119 118 119 120 120 121 121 120 118 115 113 111 111 113 115 116 115 117 116 112 113 116 117 117 115
115 162 86 94 185 152 145 141 185 112 22 203 189 208 149 140 156 170 152 137 157 132 227 210 144 110 90 264 282 189 186 177 170 167 171 169 166 166 172 180 180 182 185 181 180 178 178 179 177 177 176 177 177 174 173 171 169 168 165 164 163 159 154 151 150 147 143 138 135 131 129 128 125 123 121 122 120 123 126 126 126 122 117 116 114 116 117 117 120 123 122 118 117 119 119 119 118
131 152 104 118 84 117 142 126 195 134 219 242 223 178 144 156 174 166 136 125 189 173 191 198 142 115 107 233 282 236 204 186 174 172 176 174 173 171 173 184 183 182 186 186 185 183 182 182 180 180 178 179 179 176 175 174 173 172 169 167 167 164 158 156 156 153 149 143 139 136 134 133 130 127 124 126 125 126 129 129 128 124 120 119 117 118 116 120 128 128 126 125 123 122 121 121 120
135 127 89 106 55 107 170 155 165 150 212 232 205 155 107 78 141 151 151 143 214 222 154 138 137 144 170 170 213 218 197 186 177 176 178 177 178 178 183 188 186 184 186 188 189 188 185 184 183 182 182 180 180 178 177 176 177 176 174 172 172 169 165 163 161 158 155 148 144 140 138 137 133 130 128 129 129 129 131 132 131 125 121 120 119 117 118 127 134 132 130 130 127 126 124 122 121
117 107 71 83 139 169 185 165 134 139 218 220 211 130 94 342 131 151 208 150 166 273 40 97 89 340 169 174 224 197 184 178 174 177 177 177 180 183 190 188 187 186 187 190 191 192 189 186 185 184 184 182 182 181 180 179 179 179 178 177 177 175 171 169 165 163 160 155 151 148 145 142 138 135 133 132 132 132 133 135 133 126 122 122 121 118 125 135 139 136 135 135 132 130 127 125 123
64 80 73 69 175 190 195 175 164 165 210 223 247 153 122 307 343 154 254 98 121 67 41 16 350 18 166 236 241 171 170 169 168 172 174 173 173 175 180 183 185 185 188 191 193 193 191 189 187 186 186 185 185 184 183 182 180 181 180 179 181 180 177 173 170 167 165 163 160 158 156 151 146 142 140 138 138 139 139 140 136 130 126 126 124 123 132 140 143 141 139 138 137 134 131 128 126
56 82 109 168 190 198 183 185 200 175 168 191 211 170 136 155 226 193 51 52 68 68 37 4 11 22 20 357 146 154 161 165 167 170 171 170 167 167 173 179 182 185 188 190 194 196 194 191 190 189 188 187 187 186 186 184 183 183 181 180 183 184 179 176 174 172 171 169 169 167 165 162 155 149 146 144 144 144 144 145 142 136 132 131 130 131 139 145 146 146 143 142 140 138 135 131 128
89 108 105 208 208 202 196 197 206 187 166 171 188 172 150 171 173 125 134 178 85 102 9 0 28 20 38 104 137 149 158 164 171 174 175 175 173 172 174 179 182 185 189 192 195 197 197 194 193 192 190 189 189 188 187 186 185 184 183 182 184 184 181 179 178 177 176 175 175 172 170 168 161 155 151 149 147 147 148 148 147 143 140 139 140 142 146 148 149 149 146 145 144 142 139 134 132
153 113 99 233 216 205 222 199 212 243 184 156 172 172 160 195 170 143 160 165 158 177 202 138 204 224 139 137 144 150 159 166 175 179 182 185 184 181 178 180 185 189 193 195 196 196 198 198 196 195 194 192 191 190 189 188 188 187 186 185 186 185 183 182 181 181 181 181 180 177 176 172 167 162 157 156 153 151 153 153 153 151 150 150 151 151 150 150 151 151 149 147 146 146 143 139 137
136 104 165 223 185 154 253 232 280 281 162 153 153 134 164 224 182 169 143 138 255 240 215 194 201 190 167 174 164 160 165 171 178 184 189 192 192 191 188 186 189 192 194 195 197 196 198 200 199 198 197 196 194 193 192 191 190 190 189 187 188 187 185 185 184 184 184 186 184 182 183 177 174 172 166 164 159 157 158 159 160 160 159 157 156 154 150 152 153 153 153 151 148 147 145 143 142
76 19 204 205 144 147 271 289 316 45 104 119 128 139 180 171 175 169 147 156 227 232 217 208 198 174 170 175 174 171 172 176 182 188 193 197 199 199 198 196 193 194 195 195 197 198 199 201 201 199 200 199 198 197 195 194 193 193 192 190 190 189 189 187 185 186 186 189 189 187 188 183 181 179 173 168 165 163 162 164 166 167 165 160 160 157 152 154 155 156 157 154 150 149 147 146 146
100 278 265 239 185 163 237 319 331 104 112 122 145 170 151 115 226 182 160 195 224 227 214 212 200 170 168 166 168 175 180 184 188 192 196 199 201 203 202 202 200 198 198 198 199 199 200 201 201 200 200 201 201 201 199 197 197 197 195 193 192 191 192 190 187 187 188 192 195 193 192 189 185 181 178 173 170 169 166 168 170 171 169 163 164 162 157 157 157 158 159 156 152 151 150 148 147
96 175 283 310 172 137 173 144 39 95 121 159 153 125 135 148 192 151 193 231 240 256 260 205 175 157 157 159 173 185 186 190 195 198 199 200 203 205 204 204 204 202 202 203 202 201 202 202 202 202 202 201 202 203 202 200 199 200 198 196 195 194 195 194 191 189 190 195 199 198 196 194 188 182 181 177 174 173 170 171 173 174 172 167 167 167 163 160 160 161 160 157 154 154 151 148 147
83 166 225 11 358 312 309 82 63 70 103 123 112 116 191 193 181 151 235 244 244 254 346 65 138 143 157 169 183 189 191 197 201 203 204 207 208 208 208 207 207 206 206 206 204 204 204 202 203 204 204 203 202 203 204 203 202 202 201 199 197 197 197 199 195 191 192 196 201 201 199 198 191 185 184 182 179 176 173 175 177 176 175 171 170 171 169 166 164 163 161 158 156 155 152 149 148
177 152 172 133 302 293 6 71 49 38 56 76 122 125 278 247 259 266 242 238 227 191 67 79 133 146 175 181 186 189 194 202 204 206 208 212 212 212 214 211 209 210 211 209 206 207 206 203 204 206 206 205 203 203 204 204 204 204 205 203 201 199 199 201 198 194 195 197 200 202 204 203 196 191 189 186 182 179 177 179 180 179 178 177 176 174 174 173 169 166 164 161 158 155 153 150 149
158 121 117 92 25 315 24 91 309 353 8 70 153 207 297 306 330 266 260 247 153 146 161 180 155 167 188 189 194 194 197 205 205 205 207 211 212 215 216 213 213 213 212 211 210 209 207 206 206 207 207 206 205 204 205 206 206 206 208 207 204 204 202 203 202 198 198 199 201 203 207 208 201 198 198 193 188 183 182 182 183 183 182 182 183 180 176 177 173 170 167 163 161 158 154 152 151
126 116 82 16 356 327 355 88 285 336 65 115 128 182 307 356 309 233 260 271 153 166 183 195 190 192 195 195 200 198 205 211 207 202 203 207 211 213 213 213 214 213 213 213 213 211 209 209 208 208 208 208 207 206 206 206 207 208 210 211 208 208 207 206 205 202 200 200 203 204 208 210 205 204 203 201 195 188 186 185 185 186 188 187 187 184 176 176 174 170 169 165 163 161 157 154 153
122 107 88 348 0 341 284 242 281 336 116 227 101 350 295 231 231 237 268 340 157 173 192 205 211 211 204 204 204 203 215 215 205 206 211 211 213 212 213 216 214 213 214 215 214 212 212 212 210 210 208 209 209 208 208 208 208 209 211 212 211 211 210 208 208 207 204 202 204 206 208 209 207 207 205 204 201 194 190 188 189 189 192 191 188 186 178 175 175 171 169 168 165 163 160 156 156
126 87 95 28 14 339 280 300 2 141 66 2 90 282 275 245 245 254 298 325 146 172 209 216 222 226 220 214 211 217 222 213 206 213 218 218 218 216 217 219 216 214 215 213 214 214 215 213 211 210 209 210 210 210 211 210 210 211 211 211 211 210 211 211 210 210 208 205 206 208 208 208 209 208 205 205 203 197 194 192 192 192 194 194 190 188 182 177 177 174 171 169 167 166 163 160 160
113 97 71 63 90 278 294 309 129 149 309 43 94 206 268 272 271 275 294 250 176 193 224 220 227 234 233 228 220 226 226 216 216 219 221 222 222 220 221 222 218 217 216 214 215 216 216 214 211 210 209 211 211 210 212 213 213 212 211 211 211 210 210 210 211 213 213 210 208 209 209 209 210 209 205 206 206 201 198 195 195 196 195 195 193 190 186 181 178 176 174 172 168 167 166 163 164
54 108 316 350 153 259 305 284 156 155 280 50 94 223 270 278 278 281 304 213 175 208 233 232 234 234 235 238 228 232 239 230 228 228 227 226 225 225 226 225 222 219 218 216 216 216 215 215 213 211 211 211 211 211 212 214 215 214 215 214 213 213 212 210 210 212 216 216 212 210 211 211 211 209 206 207 209 205 202 200 199 199 196 194 194 191 188 184 181 177 177 177 172 168 167 165 165
1 104 203 261 157 255 305 289 209 166 171 21 105 223 273 283 280 290 326 58 137 225 248 251 243 239 236 234 231 230 244 245 239 236 233 230 229 229 229 229 226 223 221 219 217 215 214 214 213 213 213 212 212 212 212 214 215 215 217 217 215 215 215 214 212 213 214 214 215 212 211 212 212 211 209 209 210 208 206 204 202 200 197 194 194 192 189 187 185 180 176 179 177 171 169 166 164
294 51 168 227 175 187 270 284 285 116 139 248 160 210 255 269 283 292 306 24 56 253 254 256 248 247 245 238 240 234 237 245 241 237 234 231 230 231 231 231 229 226 224 222 220 218 216 213 213 213 214 214 213 213 213 214 215 217 217 218 217 217 217 216 216 218 215 212 214 216 215 214 213 212 212 210 210 211 209 206 204 201 199 196 195 193 190 188 187 184 177 176 178 175 170 168 165
189 185 155 224 209 192 238 253 243 119 125 228 187 227 255 266 277 282 283 274 230 251 252 254 252 248 251 249 246 242 241 245 242 240 236 231 230 230 231 231 230 227 224 222 221 220 217 215 214 213 213 213 213 213 213 214 216 218 217 216 216 217 218 217 218 220 220 216 212 212 212 213 213 213 213 211 209 209 207 206 205 201 200 198 194 191 189 187 186 185 180 176 177 177 174 170 165
168 178 147 158 183 223 243 252 254 158 130 237 226 230 250 261 272 276 278 261 211 252 263 260 258 251 249 249 246 246 245 246 246 246 245 237 231 230 229 228 228 227 224 222 219 218 216 214 213 213 213 213 211 211 210 210 212 215 216 215 214 215 216 217 219 220 220 221 217 211 210 211 212 212 214 214 210 207 205 206 205 200 199 198 194 190 189 190 188 186 184 180 176 173 172 170 165
133 127 112 154 171 234 258 269 305 120 140 250 239 245 259 259 267 268 273 283 253 253 259 256 254 248 244 243 244 245 243 251 256 253 250 244 236 231 228 226 224 222 221 219 217 216 216 215 213 212 213 213 210 209 207 207 207 208 211 213 213 214 215 216 218 219 219 222 222 220 218 216 216 214 213 212 210 208 206 205 204 200 197 197 198 197 195 194 191 189 186 182 178 172 167 167 167
95 125 119 151 185 220 251 237 306 4 139 267 311 294 268 258 265 267 268 275 262 244 243 250 249 245 244 244 246 246 250 261 267 257 246 241 237 231 226 223 219 217 217 216 217 217 216 215 215 215 214 213 213 213 210 208 208 207 209 211 213 213 214 215 216 218 219 221 223 223 223 222 222 219 214 211 209 208 206 204 203 201 199 198 199 198 195 193 190 188 185 179 178 175 171 169 169
82 116 127 172 229 260 294 296 312 8 123 272 351 330 277 263 257 262 258 252 254 243 233 245 251 250 245 238 241 247 257 264 260 256 246 237 233 228 222 219 218 218 217 215 216 217 215 215 216 216 216 216 216 215 214 213 212 211 212 214 215 215 215 215 217 220 220 221 223 224 225 224 223 223 220 216 210 207 206 205 204 202 200 198 197 193 191 189 188 188 187 181 177 175 173 173 174
91 114 132 208 259 244 269 292 312 358 40 275 355 322 283 284 275 267 261 253 264 261 243 246 245 244 245 243 242 240 247 255 253 250 247 240 232 223 218 216 216 215 214 214 214 214 215 216 217 216 217 218 217 216 215 215 213 212 214 217 219 219 220 220 220 222 222 223 224 223 225 225 223 223 223 219 211 206 207 209 207 204 202 201 200 196 192 191 190 189 188 184 179 174 174 177 179
18 138 143 185 223 171 200 274 313 355 0 15 30 332 290 311 326 288 285 294 285 278 274 265 246 237 250 263 258 243 242 248 250 248 244 236 226 219 215 214 212 210 211 214 215 215 216 217 218 218 218 218 217 216 215 214 212 211 212 215 219 221 223 221 219 221 220 220 222 222 222 223 222 222 221 219 213 210 211 211 210 207 204 203 202 200 197 196 195 193 190 188 186 182 179 179 182
301 231 177 174 169 156 163 357 31 28 345 334 38 356 290 313 319 281 293 320 299 304 315 284 266 244 241 254 254 248 252 250 246 249 242 230 224 218 213 211 208 209 213 218 218 218 218 218 218 218 218 218 218 217 215 214 213 213 212 212 214 216 219 220 219 220 219 218 219 219 219 218 220 221 219 217 214 213 213 211 210 208 206 204 203 202 199 198 197 196 195 193 192 190 183 180 185
253 241 179 148 126 122 126 86 61 68 262 292 52 103 267 303 290 261 276 296 289 291 294 284 277 258 217 234 250 247 255 253 248 251 241 229 219 205 205 208 208 212 216 218 218 217 218 219 219 218 219 219 218 217 216 215 215 215 216 216 217 217 220 224 225 225 223 222 221 220 218 216 216 217 217 215 213 212 211 210 209 209 208 206 204 202 201 201 201 200 198 196 196 193 187 182 186
229 232 138 128 120 127 133 111 104 228 255 317 16 123 231 291 270 258 274 281 280 281 279 275 273 271 239 239 251 247 249 246 239 240 230 222 211 201 205 210 211 215 217 215 215 217 217 219 220 219 220 220 219 219 218 217 217 218 219 221 223 224 227 230 231 230 229 227 225 223 222 221 219 218 217 217 216 214 211 211 210 209 208 208 206 204 204 204 204 200 198 198 197 196 194 191 189
239 201 128 130 129 130 120 101 98 6 2 313 309 134 201 269 272 296 338 287 277 268 262 262 271 287 280 257 259 260 256 244 228 227 219 211 209 209 212 214 215 216 216 215 216 218 218 219 221 220 221 221 221 221 221 221 222 223 224 224 226 229 231 233 234 234 233 232 231 229 228 226 225 225 224 224 223 219 215 213 212 211 212 210 209 207 205 205 204 201 200 200 200 200 200 197 194
192 138 97 77 78 84 78 94 109 43 1 255 227 175 209 267 280 300 345 293 264 260 263 264 272 285 271 260 267 270 272 258 231 222 218 215 213 214 216 218 219 216 215 218 218 219 219 219 220 220 222 223 223 223 224 225 225 225 226 226 227 229 230 231 233 235 235 235 235 234 232 230 228 229 230 232 231 227 221 216 213 213 213 211 209 208 208 207 206 205 204 202 202 202 202 201 200
131 95 65 48 33 41 47 59 87 68 285 255 222 188 198 276 277 253 229 224 228 255 288 285 285 292 276 266 265 267 293 300 237 205 211 225 221 220 219 219 220 217 216 218 218 220 220 220 221 222 224 224 225 226 226 227 227 227 227 227 228 229 229 229 230 232 233 233 234 234 234 233 232 231 232 234 234 232 227 221 217 214 212 210 211 211 212 212 210 207 205 203 203 205 205 204 204
99 80 78 68 352 10 19 0 48 140 253 265 267 215 165 240 256 252 251 251 238 238 265 276 292 301 287 278 270 270 316 343 302 131 115 191 208 212 213 216 218 216 215 217 218 220 220 221 221 222 224 225 226 227 227 228 228 228 229 229 230 231 230 229 229 231 231 231 232 234 234 236 235 234 232 231 231 229 228 224 220 216 214 213 214 216 217 216 213 208 206 204 204 206 208 207 206
74 93 99 96 336 5 342 301 201 227 246 264 297 286 211 236 242 252 262 262 252 227 223 246 264 264 256 257 263 273 291 304 273 126 141 191 205 208 207 210 212 213 215 216 217 219 220 221 222 223 225 227 227 227 228 228 229 230 230 230 232 232 232 232 232 232 232 232 233 233 233 235 234 233 230 228 227 225 224 223 219 217 216 215 218 221 220 216 211 208 207 207 206 207 209 209 208
125 137 133 137 138 136 248 264 267 260 264 282 302 244 252 275 260 241 244 249 249 235 228 234 240 239 243 260 272 274 268 264 262 249 234 225 222 218 212 211 213 214 216 216 216 218 220 221 223 225 228 229 229 229 229 230 230 232 232 233 234 234 233 234 234 234 234 234 234 234 235 236 235 234 232 229 227 225 224 224 222 219 218 220 224 224 219 215 211 209 208 208 208 209 210 210 210
178 156 136 154 162 163 205 214 212 249 281 298 299 235 205 227 271 246 245 266 276 258 255 258 257 255 267 290 292 258 250 258 263 253 245 239 231 226 222 219 218 219 218 217 217 218 220 223 225 227 229 230 230 230 230 231 232 233 234 235 235 235 236 237 237 237 236 236 236 236 237 237 238 238 236 233 230 227 225 225 224 223 223 225 226 223 217 213 211 210 209 209 209 210 211 212 212
232 123 107 186 191 148 137 192 180 183 313 297 255 234 215 209 272 271 261 282 290 282 293 311 292 274 294 299 273 233 233 240 237 241 246 248 239 232 232 229 226 225 223 221 220 220 221 225 227 230 232 233 233 232 232 233 234 235 236 236 237 237 237 238 238 238 238 238 239 239 239 239 240 240 240 238 233 228 225 224 223 223 224 225 223 220 216 213 212 211 210 211 211 211 211 213 214
174 147 182 216 179 122 110 249 138 81 266 270 208 248 282 327 287 281 273 279 294 305 307 310 296 300 323 292 259 224 225 226 219 226 234 240 238 234 234 234 232 229 227 227 227 226 227 228 229 232 234 234 235 235 235 236 236 237 238 237 238 238 238 239 239 239 239 240 241 242 242 242 241 241 243 240 234 229 226 223 222 222 222 222 221 219 216 214 213 212 212 212 213 212 212 213 215
134 187 208 179 86 91 109 211 341 41 248 271 244 242 274 312 271 302 332 264 277 289 286 285 288 292 284 268 254 208 219 232 230 237 244 247 241 236 235 235 236 236 235 236 235 234 233 234 235 235 236 236 237 239 239 240 239 239 240 239 239 239 240 241 242 242 242 242 242 242 241 241 240 239 243 243 236 230 226 224 222 222 222 221 220 219 217 215 213 213 213 214 214 213 212 214 215
135 189 185 112 126 208 105 162 204 164 232 272 285 260 255 215 225 285 271 224 240 263 270 273 274 265 249 258 264 219 224 246 242 237 245 247 238 235 233 234 237 239 241 243 242 240 237 237 238 239 241 241 242 243 244 243 242 242 243 243 242 242 242 243 244 244 244 243 242 242 240 239 239 237 238 241 238 232 228 224 222 222 223 222 221 220 218 216 214 214 214 213 213 213 213 214 215
63 101 110 97 148 174 167 166 169 172 200 248 299 301 260 227 205 191 210 218 214 233 252 255 254 251 245 258 271 247 229 241 241 236 242 244 240 238 235 236 241 243 246 247 245 243 242 241 241 241 243 243 242 244 245 245 245 245 245 245 245 244 243 244 245 245 244 244 243 242 241 239 237 236 235 236 238 237 232 229 226 224 224 225 223 221 220 217 215 215 215 215 214 213 213 215 215
146 157 175 190 123 110 168 194 130 144 170 195 264 278 262 251 193 178 199 216 214 219 231 236 242 250 252 250 255 257 249 249 248 244 243 242 247 249 243 243 247 248 250 249 246 245 245 244 244 243 244 243 244 246 246 247 247 246 246 247 246 246 245 245 245 245 244 244 244 242 242 240 238 236 234 232 236 239 238 235 232 228 226 226 225 223 222 219 216 216 217 217 216 214 214 215 215
174 180 193 191 172 136 169 237 221 128 167 179 199 266 266 245 192 187 196 212 223 223 224 236 250 256 254 247 241 242 246 255 259 257 255 254 261 264 256 249 250 251 251 249 247 246 245 246 247 247 247 247 248 252 252 251 249 247 248 248 248 248 247 246 245 245 244 244 243 243 242 240 238 236 235 235 236 237 239 239 237 233 229 226 226 224 223 221 218 218 218 218 218 216 215 214 214